Weather History for Saguache, CO

Change the Weather History Date:

Sunday, July 14, 2013

  Actual Average (KALS) Record (KALS)
Temperature  
Mean Temperature 68 °F 65 °F  
Max Temperature 82 °F 83 °F 93 °F (2003)
Min Temperature 53 °F 47 °F 36 °F (1992)
Degree Days  
Heating Degree Days 0 1  
Month to date heating degree days 23  
Since 1 June heating degree days 191  
Since 1 July heating degree days 23  
Cooling Degree Days 2 1  
Month to date cooling degree days 14  
Year to date cooling degree days 20  
Since 1 June cooling degree days 20  
Growing Degree Days 18 (Base 50)    
Moisture  
Dew Point 49 °F    
Average Humidity 62    
Maximum Humidity 94    
Minimum Humidity 23    
Precipitation  
Precipitation 0.26 in 0.04 in 0.55 in (1938)
Month to date precipitation 0.40  
Year to date precipitation 3.11  
Snow  
Snow 0.00 in 0.00 in 0.00 in (2002)
Month to date snowfall 0.0  
Since 1 June snowfall 0.0  
Since 1 July snowfall 0.0  
Snow Depth -    
Sea Level Pressure  
Sea Level Pressure 30.36 in    
Wind  
Wind Speed 9 mph (NW)    
Max Wind Speed 21 mph    
Max Gust Speed 30 mph    
Visibility 9 miles    
Events Thunderstorm    
T = Trace of Precipitation, MM = Missing Value Source: NWS Daily Summary

Daily Weather History Graph

Daily Weather History Graph

Search for Another Location

Airport:

Trip Planner

Search our weather history database for the weather conditions in past years. The results will help you decide how hot, cold, wet, or windy it might be!

Date:

Astronomy

Jul. 14, 2013 Rise Set
Actual Time 5:53 AM MDT 8:27 PM MDT
Civil Twilight 5:22 AM MDT 8:58 PM MDT
Nautical Twilight 4:44 AM MDT 9:36 PM MDT
Astronomical Twilight 4:01 AM MDT 10:18 PM MDT
Moon 12:06 PM MDT (7/14) 11:48 PM MDT (7/14)
Length of Visible Light 15h 35m
Length of Day
14h 34m
Waxing Crescent, 35% of the Moon is Illuminated
Jul 14
Waxing Crescent
Jul 15
First Quarter
Jul 22
Full
Jul 29
Last Quarter
Aug 6
New

Hourly Weather History & Observations

Time (MDT) Temp. Dew Point Humidity Pressure Visibility Wind Dir Wind Speed Gust Speed Precip Events Conditions
12:13 AM 60.8 °F 51.8 °F 72% 30.39 in 10.0 mi ESE 11.5 mph - N/A   Overcast
12:34 AM 59.0 °F 51.8 °F 77% 30.40 in 10.0 mi ESE 10.4 mph - N/A   Mostly Cloudy
12:54 AM 59.0 °F 50.0 °F 72% 30.40 in 10.0 mi SE 8.1 mph - N/A   Scattered Clouds
1:14 AM 59.0 °F 50.0 °F 72% 30.39 in 10.0 mi SSE 3.5 mph - N/A   Clear
1:34 AM 57.2 °F 51.8 °F 82% 30.38 in 10.0 mi SW 5.8 mph - N/A   Clear
1:54 AM 57.2 °F 50.0 °F 77% 30.38 in 10.0 mi NW 3.5 mph - N/A   Clear
2:14 AM 55.4 °F 48.2 °F 77% 30.37 in 10.0 mi North 3.5 mph - N/A   Clear
2:34 AM 55.4 °F 48.2 °F 77% 30.37 in 10.0 mi NW 3.5 mph - N/A   Clear
2:54 AM 53.6 °F 46.4 °F 77% 30.36 in 10.0 mi North 3.5 mph - N/A   Clear
3:14 AM 53.6 °F 46.4 °F 77% 30.36 in 10.0 mi NNW 8.1 mph - N/A   Clear
3:34 AM 53.6 °F 46.4 °F 77% 30.37 in 10.0 mi North 6.9 mph - N/A   Clear
3:54 AM 55.4 °F 48.2 °F 77% 30.37 in 10.0 mi NNW 6.9 mph - N/A   Scattered Clouds
4:14 AM 55.4 °F 48.2 °F 77% 30.37 in 10.0 mi NNW 8.1 mph - N/A   Mostly Cloudy
4:34 AM 57.2 °F 48.2 °F 72% 30.37 in 10.0 mi NNW 6.9 mph - N/A   Scattered Clouds
4:54 AM 59.0 °F 48.2 °F 67% 30.37 in 10.0 mi NNW 6.9 mph - N/A   Scattered Clouds
5:13 AM 57.2 °F 48.2 °F 72% 30.38 in 10.0 mi NNW 10.4 mph - N/A   Scattered Clouds
5:34 AM 57.2 °F 48.2 °F 72% 30.39 in 10.0 mi NW 11.5 mph - N/A   Clear
5:54 AM 57.2 °F 48.2 °F 72% 30.40 in 10.0 mi North 9.2 mph - N/A   Clear
6:14 AM 57.2 °F 48.2 °F 72% 30.39 in 10.0 mi NW 11.5 mph - N/A   Clear
6:33 AM 57.2 °F 46.4 °F 67% 30.39 in 10.0 mi NW 9.2 mph - N/A   Clear
6:54 AM 57.2 °F 46.4 °F 67% 30.39 in 10.0 mi NW 12.7 mph - N/A   Clear
7:14 AM 60.8 °F 48.2 °F 63% 30.39 in 10.0 mi NW 12.7 mph - N/A   Clear
7:34 AM 62.6 °F 46.4 °F 55% 30.39 in 10.0 mi NW 11.5 mph - N/A   Clear
7:53 AM 64.4 °F 46.4 °F 52% 30.40 in 10.0 mi NW 11.5 mph 18.4 mph N/A   Clear
8:14 AM 66.2 °F 46.4 °F 49% 30.40 in 10.0 mi NW 11.5 mph 17.3 mph N/A   Clear
8:34 AM 68.0 °F 46.4 °F 46% 30.39 in 10.0 mi NW 12.7 mph - N/A   Clear
8:54 AM 69.8 °F 46.4 °F 43% 30.39 in 10.0 mi NW 13.8 mph - N/A   Mostly Cloudy
9:13 AM 68.0 °F 46.4 °F 46% 30.39 in 10.0 mi NW 11.5 mph - N/A   Scattered Clouds
9:34 AM 69.8 °F 46.4 °F 43% 30.38 in 10.0 mi NW 12.7 mph - N/A   Clear
9:54 AM 71.6 °F 44.6 °F 38% 30.37 in 10.0 mi NW 15.0 mph 20.7 mph N/A   Clear
10:13 AM 73.4 °F 46.4 °F 38% 30.37 in 10.0 mi NW 13.8 mph 19.6 mph N/A   Clear
10:34 AM 75.2 °F 46.4 °F 36% 30.36 in 10.0 mi NW 16.1 mph - N/A   Clear
10:53 AM 77.0 °F 46.4 °F 34% 30.36 in 10.0 mi West 12.7 mph - N/A   Clear
11:14 AM 80.6 °F 44.6 °F 28% 30.35 in 10.0 mi West 11.5 mph - N/A   Clear
11:33 AM 78.8 °F 42.8 °F 28% 30.34 in 10.0 mi NW 8.1 mph 17.3 mph N/A   Scattered Clouds
11:54 AM 78.8 °F 42.8 °F 28% 30.33 in 10.0 mi West 5.8 mph - N/A   Scattered Clouds
12:14 PM 82.4 °F 41.0 °F 23% 30.32 in 10.0 mi WNW 12.7 mph 20.7 mph N/A   Scattered Clouds
12:33 PM 82.4 °F 41.0 °F 23% 30.31 in 10.0 mi West 10.4 mph - N/A   Scattered Clouds
12:54 PM 80.6 °F 44.6 °F 28% 30.31 in 10.0 mi South 5.8 mph - N/A   Mostly Cloudy
1:14 PM 82.4 °F 44.6 °F 26% 30.29 in 10.0 mi SE 10.4 mph - N/A   Overcast
1:34 PM 82.4 °F 44.6 °F 26% 30.29 in 10.0 mi SSE 10.4 mph 18.4 mph N/A   Overcast
1:54 PM 82.4 °F 44.6 °F 26% 30.28 in 10.0 mi SE 9.2 mph 20.7 mph N/A   Mostly Cloudy
2:13 PM 82.4 °F 44.6 °F 26% 30.29 in 10.0 mi East 20.7 mph 29.9 mph N/A   Scattered Clouds
2:34 PM 77.0 °F 46.4 °F 34% 30.29 in 10.0 mi East 17.3 mph 21.9 mph N/A   Mostly Cloudy
2:54 PM 68.0 °F 55.4 °F 64% 30.30 in 2.5 mi East 8.1 mph 18.4 mph 0.04 in   Overcast
3:14 PM 71.6 °F 51.8 °F 50% 30.29 in 10.0 mi Calm Calm - N/A Thunderstorm Overcast
3:34 PM 71.6 °F 53.6 °F 53% 30.29 in 10.0 mi SE 10.4 mph - N/A Thunderstorm Mostly Cloudy
3:54 PM 73.4 °F 50.0 °F 44% 30.29 in 10.0 mi SSE 11.5 mph - N/A Thunderstorm Mostly Cloudy
4:14 PM 69.8 °F 53.6 °F 56% 30.30 in 10.0 mi SSW 15.0 mph 23.0 mph N/A   Mostly Cloudy
4:34 PM 69.8 °F 50.0 °F 49% 30.29 in 10.0 mi SSW 11.5 mph 17.3 mph N/A   Scattered Clouds
4:54 PM 73.4 °F 48.2 °F 41% 30.29 in 10.0 mi SSE 11.5 mph - N/A Thunderstorm Mostly Cloudy
5:14 PM 69.8 °F 50.0 °F 49% 30.31 in 10.0 mi ESE 10.4 mph - N/A Thunderstorm Overcast
5:34 PM 68.0 °F 51.8 °F 56% 30.35 in 10.0 mi NE 4.6 mph - N/A Thunderstorm Overcast
5:53 PM 60.8 °F 55.4 °F 82% 30.37 in 1.0 mi WNW 5.8 mph - 0.09 in Thunderstorm Overcast
6:14 PM 60.8 °F 55.4 °F 82% 30.36 in 2.5 mi SSE 8.1 mph - 0.03 in Thunderstorm Thunderstorm
6:34 PM 59.0 °F 55.4 °F 88% 30.37 in 4.0 mi West 5.8 mph - 0.05 in   Overcast
6:54 PM 57.2 °F 55.4 °F 94% 30.37 in 4.0 mi WNW 6.9 mph - 0.07 in   Overcast
7:14 PM 57.2 °F 55.4 °F 94% 30.37 in 4.0 mi NW 8.1 mph - 0.02 in   Overcast
7:34 PM 57.2 °F 55.4 °F 94% 30.37 in 7.0 mi NW 9.2 mph - 0.03 in   Overcast
7:54 PM 59.0 °F 55.4 °F 88% 30.36 in 10.0 mi WNW 9.2 mph - 0.04 in   Overcast
8:14 PM 59.0 °F 53.6 °F 82% 30.36 in 10.0 mi NNE 6.9 mph - N/A   Overcast
8:34 PM 59.0 °F 51.8 °F 77% 30.36 in 7.0 mi North 9.2 mph - 0.01 in   Overcast
8:54 PM 57.2 °F 51.8 °F 82% 30.36 in 10.0 mi North 17.3 mph - 0.01 in   Overcast
9:13 PM 57.2 °F 51.8 °F 82% 30.36 in 10.0 mi NNW 16.1 mph - N/A   Overcast
9:34 PM 57.2 °F 53.6 °F 88% 30.37 in 10.0 mi North 12.7 mph - 0.01 in   Overcast
9:54 PM 57.2 °F 53.6 °F 88% 30.38 in 10.0 mi NNW 15.0 mph 18.4 mph 0.01 in   Overcast
10:14 PM 57.2 °F 53.6 °F 88% 30.38 in 10.0 mi NNW 12.7 mph 17.3 mph N/A   Overcast
10:34 PM 57.2 °F 51.8 °F 82% 30.38 in 10.0 mi NNW 11.5 mph - N/A   Mostly Cloudy
10:54 PM 57.2 °F 53.6 °F 88% 30.38 in 10.0 mi NNW 10.4 mph - N/A   Scattered Clouds
11:13 PM 57.2 °F 51.8 °F 82% 30.38 in 10.0 mi NNW 11.5 mph - N/A   Mostly Cloudy
11:34 PM 59.0 °F 51.8 °F 77% 30.38 in 10.0 mi North 5.8 mph - N/A   Mostly Cloudy
11:54 PM 59.0 °F 53.6 °F 82% 30.39 in 10.0 mi NNW 6.9 mph - N/A   Mostly Cloudy